| time (UTC) | temp C | wind direction | speed KPH | gust KPH | rain 1hr cm | rain 24hr cm | rain mn cm | humidity % | barometer mb |
| 20260506140005 | 13 | 166 | 1.6 | 3.2 | 0.00 | 0.00 | 0.00 | 87 | 1020.1 |
| 20260506135504 | 13 | 117 | 1.6 | 3.2 | 0.00 | 0.00 | 0.00 | 87 | 1020.0 |
| 20260506135004 | 13 | 178 | 1.6 | 4.8 | 0.00 | 0.00 | 0.00 | 87 | 1019.9 |
| 20260506134505 | 13 | 117 | 1.6 | 3.2 | 0.00 | 0.00 | 0.00 | 87 | 1019.9 |
| 20260506133004 | 13 | 186 | 1.6 | 3.2 | 0.00 | 0.00 | 0.00 | 87 | 1019.8 |
| 20260506132505 | 13 | 189 | 3.2 | 4.8 | 0.00 | 0.00 | 0.00 | 87 | 1019.7 |
| 20260506131504 | 13 | 150 | 3.2 | 4.8 | 0.00 | 0.00 | 0.00 | 87 | 1019.6 |
| 20260506130005 | 13 | 178 | 3.2 | 4.8 | 0.00 | 0.00 | 0.00 | 87 | 1019.6 |
| 20260506125505 | 13 | 156 | 3.2 | 4.8 | 0.00 | 0.00 | 0.00 | 87 | 1019.5 |
| 20260506125005 | 13 | 148 | 3.2 | 4.8 | 0.00 | 0.00 | 0.00 | 87 | 1019.5 |
| 20260506124005 | 13 | 142 | 3.2 | 4.8 | 0.00 | 0.00 | 0.00 | 87 | 1019.5 |
| 20260506123505 | 13 | 148 | 3.2 | 4.8 | 0.00 | 0.00 | 0.00 | 87 | 1019.5 |
| 20260506123004 | 13 | 147 | 3.2 | 4.8 | 0.00 | 0.00 | 0.00 | 87 | 1019.4 |
| 20260506122504 | 13 | 158 | 3.2 | 4.8 | 0.00 | 0.00 | 0.00 | 87 | 1019.4 |
| 20260506122004 | 13 | 136 | 3.2 | 4.8 | 0.00 | 0.00 | 0.00 | 87 | 1019.4 |
| 20260506121505 | 13 | 143 | 3.2 | 4.8 | 0.00 | 0.00 | 0.00 | 87 | 1019.3 |
| 20260506120504 | 14 | 158 | 1.6 | 4.8 | 0.00 | 0.00 | 0.00 | 86 | 1019.2 |
| 20260506120004 | 14 | 141 | 3.2 | 4.8 | 0.00 | 0.00 | 0.00 | 86 | 1019.2 |
| 20260506115504 | 14 | 152 | 3.2 | 4.8 | 0.00 | 0.00 | 0.00 | 86 | 1019.2 |
| 20260506115005 | 14 | 133 | 1.6 | 4.8 | 0.00 | 0.00 | 0.00 | 87 | 1019.1 |
| 20260506114504 | 14 | 139 | 3.2 | 8.0 | 0.00 | 0.00 | 0.00 | 87 | 1019.1 |
| 20260506114005 | 14 | 147 | 1.6 | 8.0 | 0.00 | 0.00 | 0.00 | 87 | 1019.2 |
| 20260506113504 | 14 | 136 | 4.8 | 8.0 | 0.00 | 0.00 | 0.00 | 87 | 1019.2 |
| 20260506113004 | 14 | 143 | 3.2 | 4.8 | 0.00 | 0.00 | 0.00 | 87 | 1019.1 |
| 20260506112505 | 14 | 143 | 3.2 | 8.0 | 0.00 | 0.00 | 0.00 | 87 | 1019.1 |
| 20260506112004 | 14 | 107 | 3.2 | 4.8 | 0.00 | 0.00 | 0.00 | 87 | 1019.0 |
| 20260506111504 | 14 | 84 | 3.2 | 4.8 | 0.00 | 0.00 | 0.00 | 86 | 1019.0 |
| 20260506111005 | 15 | 103 | 1.6 | 4.8 | 0.00 | 0.00 | 0.00 | 86 | 1018.8 |
| 20260506110504 | 15 | 102 | 1.6 | 8.0 | 0.00 | 0.00 | 0.00 | 84 | 1018.7 |
| 20260506110004 | 15 | 119 | 1.6 | 3.2 | 0.00 | 0.00 | 0.00 | 84 | 1018.5 |
| 20260506105004 | 15 | 304 | 0.0 | 1.6 | 0.00 | 0.00 | 0.00 | 83 | 1018.5 |
| 20260506104504 | 15 | 344 | 0.0 | 1.6 | 0.00 | 0.00 | 0.00 | 84 | 1018.4 |
| 20260506104004 | 15 | 202 | 0.0 | 1.6 | 0.00 | 0.00 | 0.00 | 83 | 1018.4 |
| 20260506103505 | 15 | 177 | 0.0 | 3.2 | 0.00 | 0.00 | 0.00 | 83 | 1018.4 |
| 20260506103005 | 15 | 244 | 1.6 | 3.2 | 0.00 | 0.00 | 0.00 | 83 | 1018.4 |
| 20260506102005 | 15 | 245 | 0.0 | 3.2 | 0.00 | 0.00 | 0.00 | 83 | 1018.2 |
| 20260506101004 | 15 | 160 | 1.6 | 3.2 | 0.00 | 0.00 | 0.00 | 83 | 1018.1 |
| 20260506100504 | 15 | 179 | 3.2 | 4.8 | 0.00 | 0.00 | 0.00 | 83 | 1018.1 |
| 20260506100004 | 15 | 171 | 3.2 | 4.8 | 0.00 | 0.00 | 0.00 | 83 | 1018.1 |
| 20260506095504 | 15 | 170 | 1.6 | 4.8 | 0.00 | 0.00 | 0.00 | 83 | 1018.1 |
| 20260506094504 | 15 | 164 | 1.6 | 4.8 | 0.00 | 0.00 | 0.00 | 83 | 1018.1 |
| 20260506094005 | 15 | 197 | 3.2 | 4.8 | 0.00 | 0.00 | 0.00 | 84 | 1018.1 |
| 20260506093504 | 15 | 162 | 1.6 | 4.8 | 0.00 | 0.00 | 0.00 | 84 | 1018.2 |
| 20260506093005 | 15 | 177 | 1.6 | 4.8 | 0.00 | 0.00 | 0.00 | 84 | 1018.2 |
| 20260506092505 | 15 | 181 | 1.6 | 4.8 | 0.00 | 0.00 | 0.00 | 84 | 1018.2 |
| 20260506092005 | 15 | 201 | 3.2 | 8.0 | 0.00 | 0.00 | 0.00 | 83 | 1018.2 |
| 20260506091504 | 15 | 206 | 3.2 | 4.8 | 0.00 | 0.00 | 0.00 | 83 | 1018.2 |
| 20260506091004 | 15 | 190 | 3.2 | 4.8 | 0.00 | 0.00 | 0.00 | 83 | 1018.2 |
| 20260506090505 | 15 | 199 | 3.2 | 4.8 | 0.00 | 0.00 | 0.00 | 83 | 1018.2 |
| 20260506090005 | 15 | 180 | 3.2 | 4.8 | 0.00 | 0.00 | 0.00 | 83 | 1018.2 |
| 20260506085505 | 15 | 167 | 3.2 | 4.8 | 0.00 | 0.00 | 0.00 | 83 | 1018.2 |
| 20260506085004 | 15 | 195 | 1.6 | 4.8 | 0.00 | 0.00 | 0.00 | 83 | 1018.2 |
| 20260506084504 | 15 | 182 | 3.2 | 8.0 | 0.00 | 0.00 | 0.00 | 82 | 1018.1 |
| 20260506083505 | 15 | 158 | 3.2 | 8.0 | 0.00 | 0.00 | 0.00 | 82 | 1018.1 |
| 20260506083005 | 15 | 116 | 3.2 | 4.8 | 0.00 | 0.00 | 0.00 | 82 | 1018.1 |
| 20260506082505 | 15 | 167 | 3.2 | 4.8 | 0.00 | 0.00 | 0.00 | 82 | 1018.1 |
| 20260506082004 | 15 | 199 | 3.2 | 4.8 | 0.00 | 0.00 | 0.00 | 82 | 1018.1 |
| 20260506081504 | 15 | 194 | 3.2 | 4.8 | 0.00 | 0.00 | 0.00 | 82 | 1018.0 |
| 20260506081005 | 15 | 171 | 1.6 | 4.8 | 0.00 | 0.00 | 0.00 | 82 | 1018.0 |
| 20260506080504 | 15 | 198 | 3.2 | 4.8 | 0.00 | 0.00 | 0.00 | 81 | 1018.0 |
| 20260506073505 | 15 | 158 | 1.6 | 3.2 | 0.00 | 0.00 | 0.00 | 81 | 1017.8 |
| 20260506073004 | 15 | 162 | 3.2 | 4.8 | 0.00 | 0.00 | 0.00 | 81 | 1017.8 |
| 20260506072504 | 15 | 178 | 1.6 | 3.2 | 0.00 | 0.00 | 0.00 | 81 | 1017.7 |
| 20260506072005 | 15 | 214 | 1.6 | 3.2 | 0.00 | 0.00 | 0.00 | 81 | 1017.6 |
| 20260506071505 | 15 | 199 | 3.2 | 3.2 | 0.00 | 0.00 | 0.00 | 80 | 1017.6 |
| 20260506071005 | 15 | 156 | 1.6 | 3.2 | 0.00 | 0.00 | 0.00 | 81 | 1017.6 |
| 20260506062504 | 15 | 203 | 1.6 | 4.8 | 0.00 | 0.00 | 0.00 | 81 | 1017.2 |
| 20260506062005 | 15 | 218 | 3.2 | 8.0 | 0.00 | 0.00 | 0.00 | 81 | 1017.2 |
| 20260506061005 | 15 | 194 | 3.2 | 9.7 | 0.00 | 0.00 | 0.00 | 81 | 1017.0 |
| 20260506060505 | 16 | 210 | 3.2 | 8.0 | 0.00 | 0.00 | 0.00 | 81 | 1017.1 |
| 20260506051005 | 16 | 261 | 4.8 | 8.0 | 0.00 | 0.00 | 0.00 | 79 | 1016.7 |
| 20260506050505 | 16 | 263 | 3.2 | 9.7 | 0.00 | 0.00 | 0.00 | 79 | 1016.6 |
| 20260506045004 | 16 | 192 | 4.8 | 12.9 | 0.00 | 0.00 | 0.00 | 79 | 1016.3 |
| 20260506044004 | 16 | 198 | 4.8 | 9.7 | 0.00 | 0.00 | 0.00 | 79 | 1016.2 |
| 20260506043505 | 16 | 206 | 4.8 | 11.3 | 0.00 | 0.00 | 0.00 | 79 | 1016.2 |
| 20260506043004 | 16 | 199 | 3.2 | 9.7 | 0.00 | 0.00 | 0.00 | 78 | 1016.0 |
| 20260506042505 | 16 | 206 | 4.8 | 11.3 | 0.00 | 0.00 | 0.00 | 78 | 1016.0 |
| 20260506042005 | 16 | 266 | 1.6 | 9.7 | 0.00 | 0.00 | 0.00 | 79 | 1015.9 |
| 20260506041504 | 16 | 237 | 4.8 | 11.3 | 0.00 | 0.00 | 0.00 | 78 | 1015.7 |
| 20260506041004 | 16 | 210 | 8.0 | 12.9 | 0.00 | 0.00 | 0.00 | 78 | 1015.7 |
| 20260506040004 | 16 | 208 | 8.0 | 12.9 | 0.00 | 0.00 | 0.00 | 78 | 1015.7 |
| 20260506035505 | 16 | 201 | 4.8 | 9.7 | 0.00 | 0.00 | 0.00 | 78 | 1015.8 |
| 20260506035005 | 16 | 215 | 4.8 | 11.3 | 0.00 | 0.00 | 0.00 | 78 | 1015.8 |
| 20260506034504 | 16 | 191 | 4.8 | 14.5 | 0.00 | 0.00 | 0.00 | 78 | 1015.8 |
| 20260506034004 | 16 | 216 | 4.8 | 9.7 | 0.00 | 0.00 | 0.00 | 78 | 1015.7 |
| 20260506033504 | 17 | 208 | 8.0 | 12.9 | 0.00 | 0.00 | 0.00 | 78 | 1015.6 |
| 20260506033005 | 17 | 201 | 6.4 | 11.3 | 0.00 | 0.00 | 0.00 | 77 | 1015.5 |
| 20260506032505 | 17 | 242 | 4.8 | 9.7 | 0.00 | 0.00 | 0.00 | 77 | 1015.4 |
| 20260506032005 | 17 | 240 | 3.2 | 11.3 | 0.00 | 0.00 | 0.00 | 76 | 1015.3 |
| 20260506031505 | 17 | 247 | 4.8 | 11.3 | 0.00 | 0.00 | 0.00 | 76 | 1015.2 |
| 20260506024005 | 17 | 221 | 8.0 | 14.5 | 0.00 | 0.00 | 0.00 | 75 | 1014.7 |
| 20260506023505 | 17 | 221 | 11.3 | 16.1 | 0.00 | 0.00 | 0.00 | 74 | 1014.6 |
| 20260506023005 | 18 | 212 | 8.0 | 14.5 | 0.00 | 0.00 | 0.00 | 75 | 1014.6 |
| 20260506022005 | 18 | 220 | 6.4 | 14.5 | 0.00 | 0.00 | 0.00 | 74 | 1014.5 |
| 20260506021505 | 18 | 179 | 9.7 | 14.5 | 0.00 | 0.00 | 0.00 | 74 | 1014.4 |
| 20260506021005 | 18 | 206 | 8.0 | 14.5 | 0.00 | 0.00 | 0.00 | 73 | 1014.3 |
| 20260506020504 | 18 | 211 | 8.0 | 14.5 | 0.00 | 0.00 | 0.00 | 73 | 1014.3 |
| 20260506015004 | 18 | 232 | 9.7 | 12.9 | 0.00 | 0.00 | 0.00 | 72 | 1014.3 |
| 20260506014504 | 18 | 215 | 9.7 | 16.1 | 0.00 | 0.00 | 0.00 | 72 | 1014.2 |
| 20260506014004 | 18 | 202 | 9.7 | 16.1 | 0.00 | 0.00 | 0.00 | 72 | 1014.2 |
| 20260506013505 | 18 | 201 | 4.8 | 12.9 | 0.00 | 0.00 | 0.00 | 72 | 1014.3 |
| 20260506013005 | 18 | 207 | 6.4 | 14.5 | 0.00 | 0.00 | 0.00 | 72 | 1014.3 |
| 20260506012505 | 18 | 231 | 9.7 | 14.5 | 0.00 | 0.00 | 0.00 | 72 | 1014.3 |
| 20260506012004 | 18 | 235 | 8.0 | 12.9 | 0.00 | 0.00 | 0.00 | 72 | 1014.3 |
| 20260506011505 | 18 | 184 | 4.8 | 12.9 | 0.00 | 0.00 | 0.00 | 73 | 1014.3 |
| 20260506011005 | 18 | 240 | 6.4 | 12.9 | 0.00 | 0.00 | 0.00 | 73 | 1014.3 |
| 20260506010504 | 18 | 218 | 8.0 | 19.3 | 0.00 | 0.00 | 0.00 | 73 | 1014.2 |
| 20260506010004 | 18 | 217 | 4.8 | 19.3 | 0.00 | 0.00 | 0.00 | 70 | 1014.1 |
| 20260506005504 | 18 | 227 | 4.8 | 14.5 | 0.00 | 0.00 | 0.00 | 68 | 1013.9 |
| 20260506004505 | 19 | 166 | 8.0 | 16.1 | 0.00 | 0.00 | 0.00 | 67 | 1013.9 |
| 20260506004004 | 19 | 179 | 4.8 | 12.9 | 0.00 | 0.00 | 0.00 | 66 | 1013.8 |
| 20260506003504 | 19 | 170 | 4.8 | 16.1 | 0.00 | 0.00 | 0.00 | 67 | 1013.8 |
| 20260506003004 | 19 | 179 | 3.2 | 11.3 | 0.00 | 0.00 | 0.00 | 64 | 1013.7 |
| 20260506002505 | 19 | 250 | 4.8 | 9.7 | 0.00 | 0.00 | 0.00 | 64 | 1013.7 |
| 20260506002005 | 19 | 172 | 6.4 | 14.5 | 0.00 | 0.00 | 0.00 | 65 | 1013.7 |
| 20260506000504 | 19 | 163 | 3.2 | 11.3 | 0.00 | 0.00 | 0.00 | 64 | 1013.7 |
| 20260505235505 | 19 | 161 | 6.4 | 11.3 | 0.00 | 0.00 | 0.00 | 64 | 1013.6 |
| 20260505235005 | 20 | 189 | 8.0 | 11.3 | 0.00 | 0.00 | 0.00 | 64 | 1013.6 |
| 20260505234005 | 20 | 152 | 4.8 | 11.3 | 0.00 | 0.00 | 0.00 | 63 | 1013.6 |
| 20260505233504 | 20 | 127 | 4.8 | 12.9 | 0.00 | 0.00 | 0.00 | 63 | 1013.5 |
| 20260505233004 | 20 | 105 | 4.8 | 11.3 | 0.00 | 0.00 | 0.00 | 61 | 1013.4 |
| 20260505232505 | 21 | 84 | 3.2 | 11.3 | 0.00 | 0.00 | 0.00 | 60 | 1013.5 |
| 20260505232005 | 21 | 16 | 4.8 | 9.7 | 0.00 | 0.00 | 0.00 | 61 | 1013.6 |
| 20260505231004 | 21 | 105 | 4.8 | 12.9 | 0.00 | 0.00 | 0.00 | 61 | 1013.6 |
| 20260505230505 | 21 | 34 | 3.2 | 8.0 | 0.00 | 0.00 | 0.00 | 61 | 1013.7 |
| 20260505230004 | 21 | 256 | 3.2 | 8.0 | 0.00 | 0.00 | 0.00 | 59 | 1013.7 |
| 20260505225504 | 20 | 37 | 3.2 | 4.8 | 0.00 | 0.00 | 0.00 | 60 | 1013.6 |
| 20260505224504 | 20 | 264 | 4.8 | 11.3 | 0.00 | 0.00 | 0.00 | 62 | 1013.8 |
| 20260505224005 | 20 | 238 | 4.8 | 11.3 | 0.00 | 0.00 | 0.00 | 62 | 1013.8 |
| 20260505223504 | 20 | 357 | 4.8 | 8.0 | 0.00 | 0.00 | 0.00 | 64 | 1014.0 |
| 20260505223005 | 19 | 289 | 3.2 | 4.8 | 0.00 | 0.00 | 0.00 | 65 | 1014.0 |
| 20260505222005 | 18 | 304 | 4.8 | 8.0 | 0.00 | 0.00 | 0.00 | 66 | 1014.2 |
| 20260505221504 | 18 | 299 | 3.2 | 4.8 | 0.00 | 0.00 | 0.00 | 66 | 1014.3 |
| 20260505221005 | 18 | 199 | 3.2 | 8.0 | 0.00 | 0.00 | 0.00 | 69 | 1014.4 |
| 20260505220504 | 18 | 172 | 4.8 | 9.7 | 0.00 | 0.00 | 0.00 | 70 | 1014.5 |
| 20260505220005 | 18 | 178 | 8.0 | 11.3 | 0.00 | 0.00 | 0.00 | 70 | 1014.4 |
| 20260505213505 | 18 | 282 | 4.8 | 12.9 | 0.00 | 0.00 | 0.00 | 69 | 1014.5 |
| 20260505212504 | 17 | 9 | 4.8 | 9.7 | 0.00 | 0.00 | 0.00 | 72 | 1014.7 |
| 20260505212004 | 17 | 18 | 6.4 | 11.3 | 0.00 | 0.00 | 0.00 | 73 | 1014.8 |
| 20260505210504 | 17 | 237 | 3.2 | 9.7 | 0.00 | 0.00 | 0.00 | 73 | 1014.8 |
| 20260505210005 | 17 | 348 | 3.2 | 8.0 | 0.00 | 0.00 | 0.00 | 73 | 1014.8 |
| 20260505205005 | 16 | 16 | 3.2 | 11.3 | 0.00 | 0.00 | 0.00 | 75 | 1014.9 |
| 20260505204504 | 16 | 22 | 3.2 | 8.0 | 0.00 | 0.00 | 0.00 | 76 | 1015.0 |
| 20260505204005 | 16 | 55 | 4.8 | 9.7 | 0.00 | 0.00 | 0.00 | 75 | 1014.9 |
| 20260505203505 | 16 | 61 | 3.2 | 8.0 | 0.00 | 0.00 | 0.00 | 76 | 1015.0 |
| 20260505203005 | 16 | 63 | 4.8 | 8.0 | 0.00 | 0.00 | 0.00 | 77 | 1015.1 |
| 20260505202504 | 16 | 341 | 4.8 | 9.7 | 0.00 | 0.00 | 0.00 | 77 | 1015.1 |
| 20260505202005 | 15 | 337 | 4.8 | 12.9 | 0.00 | 0.00 | 0.00 | 78 | 1015.1 |
| 20260505201505 | 15 | 320 | 4.8 | 11.3 | 0.00 | 0.00 | 0.00 | 80 | 1015.3 |
| 20260505201005 | 15 | 19 | 4.8 | 11.3 | 0.00 | 0.00 | 0.00 | 79 | 1015.3 |
| 20260505200504 | 16 | 356 | 3.2 | 11.3 | 0.00 | 0.00 | 0.00 | 79 | 1015.4 |
| 20260505200005 | 16 | 41 | 6.4 | 9.7 | 0.00 | 0.00 | 0.00 | 79 | 1015.3 |
| 20260505195505 | 16 | 334 | 4.8 | 4.8 | 0.00 | 0.00 | 0.00 | 78 | 1015.3 |
| 20260505195005 | 15 | 307 | 1.6 | 4.8 | 0.00 | 0.00 | 0.00 | 79 | 1015.4 |
| 20260505194504 | 15 | 337 | 4.8 | 8.0 | 0.00 | 0.00 | 0.00 | 80 | 1015.4 |
| 20260505193505 | 15 | 306 | 3.2 | 8.0 | 0.00 | 0.00 | 0.00 | 80 | 1015.4 |
| 20260505193004 | 15 | 357 | 4.8 | 9.7 | 0.00 | 0.00 | 0.00 | 82 | 1015.5 |
| 20260505192505 | 15 | 1 | 4.8 | 9.7 | 0.00 | 0.00 | 0.00 | 84 | 1015.7 |
| 20260505192005 | 15 | 36 | 3.2 | 8.0 | 0.00 | 0.00 | 0.00 | 83 | 1015.7 |
| 20260505191505 | 15 | 29 | 4.8 | 9.7 | 0.00 | 0.00 | 0.00 | 83 | 1015.6 |
| 20260505191004 | 15 | 328 | 3.2 | 9.7 | 0.00 | 0.00 | 0.00 | 82 | 1015.5 |
| 20260505190505 | 15 | 337 | 4.8 | 9.7 | 0.00 | 0.00 | 0.00 | 83 | 1015.6 |
| 20260505190005 | 14 | 7 | 3.2 | 4.8 | 0.00 | 0.00 | 0.00 | 84 | 1015.7 |
| 20260505185505 | 14 | 353 | 3.2 | 8.0 | 0.00 | 0.00 | 0.00 | 85 | 1015.7 |
| 20260505185005 | 14 | 328 | 4.8 | 11.3 | 0.00 | 0.00 | 0.00 | 86 | 1015.8 |
| 20260505184505 | 14 | 15 | 4.8 | 9.7 | 0.00 | 0.00 | 0.00 | 85 | 1015.7 |
| 20260505183504 | 14 | 4 | 3.2 | 9.7 | 0.00 | 0.00 | 0.00 | 86 | 1015.8 |
| 20260505183004 | 14 | 7 | 6.4 | 11.3 | 0.00 | 0.00 | 0.00 | 87 | 1015.8 |
| 20260505182505 | 14 | 2 | 4.8 | 9.7 | 0.00 | 0.00 | 0.00 | 86 | 1015.7 |
| 20260505182005 | 14 | 8 | 3.2 | 9.7 | 0.00 | 0.00 | 0.00 | 86 | 1015.7 |
| 20260505181004 | 14 | 5 | 1.6 | 9.7 | 0.00 | 0.00 | 0.00 | 86 | 1015.7 |
| 20260505180505 | 13 | 47 | 1.6 | 8.0 | 0.00 | 0.00 | 0.00 | 87 | 1015.5 |
| 20260505180004 | 13 | 3 | 6.4 | 9.7 | 0.00 | 0.00 | 0.00 | 87 | 1015.5 |
| 20260505174505 | 13 | 66 | 1.6 | 8.0 | 0.00 | 0.00 | 0.00 | 86 | 1015.5 |
| 20260505173005 | 13 | 20 | 3.2 | 9.7 | 0.00 | 0.00 | 0.00 | 88 | 1015.5 |
| 20260505172504 | 13 | 14 | 4.8 | 9.7 | 0.00 | 0.00 | 0.00 | 87 | 1015.4 |
| 20260505172004 | 13 | 17 | 4.8 | 8.0 | 0.00 | 0.00 | 0.00 | 87 | 1015.4 |
| 20260505171505 | 13 | 11 | 3.2 | 8.0 | 0.00 | 0.00 | 0.00 | 87 | 1015.4 |
| 20260505171005 | 13 | 358 | 4.8 | 8.0 | 0.00 | 0.00 | 0.00 | 87 | 1015.3 |
| 20260505170504 | 13 | 332 | 3.2 | 8.0 | 0.00 | 0.00 | 0.00 | 87 | 1015.4 |
| 20260505170004 | 13 | 353 | 4.8 | 8.0 | 0.00 | 0.00 | 0.00 | 88 | 1015.4 |
| 20260505165505 | 13 | 14 | 1.6 | 4.8 | 0.00 | 0.00 | 0.00 | 88 | 1015.5 |
| 20260505165004 | 13 | 58 | 3.2 | 4.8 | 0.00 | 0.00 | 0.00 | 88 | 1015.5 |
| 20260505164005 | 13 | 48 | 4.8 | 8.0 | 0.00 | 0.00 | 0.00 | 88 | 1015.3 |
| 20260505163504 | 13 | 2 | 3.2 | 4.8 | 0.00 | 0.00 | 0.00 | 87 | 1015.3 |
| 20260505163005 | 13 | 358 | 3.2 | 4.8 | 0.00 | 0.00 | 0.00 | 88 | 1015.3 |
| 20260505162505 | 13 | 325 | 3.2 | 4.8 | 0.00 | 0.00 | 0.00 | 88 | 1015.3 |
| 20260505162005 | 13 | 36 | 3.2 | 4.8 | 0.00 | 0.00 | 0.00 | 89 | 1015.3 |
| 20260505161505 | 13 | 352 | 3.2 | 8.0 | 0.00 | 0.00 | 0.00 | 88 | 1015.3 |
| 20260505161005 | 13 | 17 | 1.6 | 4.8 | 0.00 | 0.00 | 0.00 | 89 | 1015.3 |
| 20260505160504 | 13 | 27 | 1.6 | 4.8 | 0.00 | 0.00 | 0.00 | 89 | 1015.3 |
| 20260505153005 | 12 | 6 | 1.6 | 3.2 | 0.00 | 0.00 | 0.00 | 92 | 1015.8 |
| 20260505152504 | 12 | 327 | 1.6 | 3.2 | 0.00 | 0.00 | 0.00 | 91 | 1015.8 |
| 20260505152004 | 12 | 355 | 1.6 | 3.2 | 0.00 | 0.00 | 0.00 | 92 | 1015.8 |
| 20260505151505 | 12 | 306 | 0.0 | 1.6 | 0.00 | 0.00 | 0.00 | 92 | 1015.8 |
| 20260505151005 | 12 | 131 | 0.0 | 0.0 | 0.00 | 0.00 | 0.00 | 93 | 1015.7 |
| 20260505150504 | 12 | 131 | 0.0 | 1.6 | 0.00 | 0.00 | 0.00 | 93 | 1015.5 |
| 20260505140505 | 12 | 102 | 1.6 | 3.2 | 0.00 | 0.00 | 0.00 | 94 | 1015.0 |